Theta_e
298 297 296 294 295 294 294 294 291 288 289 291 290 292 292 292 290 291 289 290 291 293 295 294 294 294 295 295 295 295 296 296 295 296 296 297 297 298
296 295 294 293 293 293 293 292 292 290 288 290 290 291 291 290 291 290 289 290 289 291 293 293 293 293 293 293 293 293 294 294 293 294 294 295 295 296
294 293 292 292 291 291 292 291 291 290 288 289 290 290 289 289 290 290 289 288 288 288 290 290 291 292 291 291 291 291 291 291 291 291 292 293 293 294
291 291 289 290 289 290 290 290 290 289 288 286 288 288 288 289 288 287 287 288 287 287 288 288 289 290 290 290 289 289 289 289 289 289 289 290 291 292
290 289 288 288 288 288 289 289 289 287 288 287 286 288 288 287 286 286 285 286 287 287 287 286 287 288 290 289 288 287 287 287 287 287 287 287 288 289
290 290 288 288 288 288 288 288 287 287 286 285 285 285 285 285 285 283 282 283 283 286 286 285 285 286 287 288 287 286 286 285 285 285 285 286 286 287
288 287 288 287 288 289 287 287 287 286 285 285 284 284 284 283 282 283 281 282 282 283 284 284 282 283 284 285 285 286 286 284 284 283 284 284 285 285
286 286 286 284 285 286 286 287 288 285 283 283 284 283 282 282 284 282 281 280 278 284 281 282 281 282 282 281 285 285 285 284 283 282 282 283 284 284
286 285 284 284 285 285 286 286 286 287 286 284 283 283 282 282 280 280 280 280 279 282 282 279 282 280 281 281 282 283 284 284 283 281 280 280 281 282
285 285 284 284 284 284 284 284 284 284 284 284 284 284 284 285 284 283 281 280 280 281 282 277 281 281 283 278 280 280 281 282 283 282 281 279 279 279
284 284 284 283 284 285 284 283 283 284 286 286 286 287 288 289 286 283 280 278 277 282 282 280 279 281 281 281 277 278 278 279 280 281 281 280 278 277
282 282 282 283 284 284 283 283 281 283 283 283 283 285 286 286 286 283 281 277 278 278 281 278 280 280 276 277 276 275 274 276 276 277 279 280 279 273
281 281 281 283 284 284 285 283 283 284 283 282 283 284 284 284 281 281 282 280 278 279 281 278 279 279 278 277 278 275 273 273 273 273 274 276 278 277
282 282 282 283 283 284 284 285 285 284 283 282 282 282 282 283 283 282 281 280 280 280 279 278 274 276 277 276 275 273 273 272 272 271 271 273 274 275
283 282 283 283 284 284 284 284 282 280 280 279 280 280 283 282 282 281 281 279 278 278 278 276 275 275 276 275 274 275 272 271 271 271 270 270 270 271
282 282 282 282 281 281 280 281 279 279 279 278 279 280 281 281 280 281 279 278 276 276 276 276 275 275 273 274 274 273 272 268 269 269 270 270 270 271
281 280 278 278 277 278 278 277 277 276 276 277 278 277 278 278 279 280 280 279 277 274 276 272 274 274 274 274 269 272 272 268 270 269 267 266 269 270
279 278 277 277 276 276 275 275 274 274 275 275 274 275 275 276 276 278 279 278 276 276 275 277 271 271 270 270 274 270 270 269 268 268 267 264 265 268
278 277 276 276 275 274 273 272 272 273 271 270 272 272 273 274 274 274 276 277 277 276 276 278 272 271 269 268 267 276 270 269 268 264 265 265 264 268
276 276 275 274 272 271 271 270 270 269 269 269 269 269 269 270 271 272 273 274 276 276 275 276 272 272 270 271 272 268 275 269 268 267 266 265 267 271
273 272 272 271 270 269 268 268 267 267 267 266 266 266 267 269 269 270 271 272 272 272 272 274 274 275 274 270 267 264 268 274 272 268 267 264 264 265
272 271 270 268 268 267 266 266 265 265 265 266 265 265 265 267 267 267 268 269 270 271 272 273 269 270 269 269 268 269 267 268 272 272 272 270 265 260
270 269 268 267 266 266 266 265 264 265 265 263 262 262 263 262 262 265 267 267 268 269 270 271 266 267 267 268 268 269 265 265 266 265 266 271 273 273
Wind_Speed
6 5 4 4 3 2 1 1 2 2 2 4 1 5 3 3 6 6 6 9 12 15 18 18 21 22 24 25 26 26 27 29 30 31 31 31 32 32
5 7 6 4 4 3 2 2 2 1 1 2 3 3 3 4 5 4 5 4 10 14 17 19 19 21 22 23 25 26 27 28 28 28 29 29 30 31
6 7 6 6 4 4 2 2 2 1 2 1 1 2 2 3 4 4 4 3 4 11 13 14 17 19 20 22 23 24 25 26 27 27 28 29 30 30
8 8 8 5 6 5 4 4 2 2 1 1 1 1 1 2 3 3 4 3 2 6 9 11 14 17 18 20 22 23 23 24 24 26 27 28 28 28
9 8 9 8 6 5 4 4 3 3 3 1 2 1 1 2 2 2 3 3 1 2 5 7 11 13 16 18 19 20 21 21 23 24 24 25 26 27
7 7 8 7 7 7 5 4 4 3 3 3 2 3 2 2 0 2 3 1 3 1 1 3 5 8 12 14 15 18 20 20 20 21 22 23 24 25
7 6 5 5 6 6 4 5 5 3 2 2 2 2 1 1 2 3 4 5 5 2 2 1 1 2 4 9 10 15 17 17 18 18 20 21 22 23
9 7 5 6 7 7 6 3 4 4 2 1 3 3 2 2 1 3 2 4 3 2 2 4 3 3 2 3 11 12 14 14 16 16 16 18 20 21
9 8 6 4 6 5 8 9 8 7 7 4 5 4 2 2 2 2 4 2 5 6 3 6 3 3 4 2 7 9 10 12 12 14 14 15 17 20
7 7 7 7 6 5 5 5 5 4 4 3 4 5 5 4 3 2 4 3 6 7 5 4 2 4 3 3 2 5 7 8 10 10 12 13 13 13
6 6 6 6 9 10 5 5 4 4 6 11 11 12 11 11 8 3 3 4 4 2 3 2 3 4 3 2 3 3 4 5 7 9 11 11 10 10
5 5 7 6 10 11 7 4 5 4 3 3 3 4 8 7 10 6 3 6 4 4 2 2 2 3 3 1 2 1 2 3 3 6 8 11 12 3
6 5 4 11 11 12 10 5 5 2 5 5 5 5 5 5 4 6 6 6 6 5 3 1 3 2 3 3 3 3 2 1 2 2 4 7 9 9
6 5 5 12 11 11 6 9 10 7 3 4 5 5 5 5 5 6 7 6 6 6 4 2 2 2 2 5 5 2 2 1 2 1 1 3 4 6
4 7 9 11 12 6 8 9 4 2 4 5 5 5 4 1 1 1 3 3 4 5 4 4 4 3 2 5 4 2 1 3 2 2 1 0 1 2
8 5 6 6 6 3 2 4 3 3 3 4 5 4 3 3 4 4 4 4 5 5 8 8 6 5 4 6 5 5 3 2 2 2 1 1 2 2
6 4 4 4 3 3 3 3 2 2 4 4 5 4 4 5 5 3 5 5 6 3 4 5 5 5 5 6 3 5 3 3 3 3 2 2 2 2
4 4 5 4 4 4 3 3 2 4 3 1 2 3 4 4 5 4 4 5 6 6 6 4 5 3 3 6 15 5 3 3 3 3 2 1 2 3
4 4 3 3 3 3 3 3 3 1 2 3 4 3 3 3 4 5 5 6 7 6 6 4 6 4 6 6 1 16 4 4 3 2 3 3 2 2
3 3 4 3 3 4 3 3 3 2 3 3 2 2 2 3 4 5 6 6 7 5 4 5 5 7 9 6 2 2 16 3 5 4 3 2 2 6
4 4 4 4 4 3 3 3 2 2 2 1 2 2 3 4 4 5 5 8 7 7 7 6 6 8 2 3 1 2 3 12 8 3 3 3 2 3
3 4 5 4 4 4 4 4 4 4 4 4 3 2 2 4 4 4 5 6 6 6 7 2 2 2 3 5 7 4 3 3 6 11 11 8 4 3
3 4 4 5 5 5 5 5 4 4 4 3 2 2 2 2 2 5 5 5 6 6 6 4 3 2 3 4 6 5 5 3 3 4 4 14 17 17
Wind_Direction
134 132 127 115 106 108 122 267 288 204 189 161 121 79 14 358 51 7 25 25 19 13 24 28 25 20 21 18 16 15 12 14 12 12 13 13 10 13
142 144 138 141 134 124 144 192 265 317 255 91 84 54 4 4 60 23 17 22 33 11 21 24 25 22 20 20 18 13 14 15 14 14 15 15 16 15
150 154 146 147 149 152 175 194 198 244 261 81 68 59 331 14 22 25 4 32 41 14 21 16 17 21 18 16 14 12 13 16 16 18 17 18 18 19
160 156 154 164 156 162 173 194 196 171 280 272 326 6 332 17 17 37 357 12 44 12 23 19 21 12 19 18 14 13 13 15 20 20 21 20 18 20
164 165 159 166 162 167 174 176 184 191 207 222 275 281 271 82 4 70 346 324 33 24 33 18 18 8 8 17 14 14 14 14 20 23 24 22 19 20
158 161 160 170 172 167 169 170 175 185 192 207 228 249 243 99 93 20 332 337 317 265 323 64 11 9 3 15 11 12 19 14 20 20 24 24 23 21
149 147 156 161 152 159 164 170 183 194 186 186 241 235 235 31 347 330 316 321 292 178 298 260 260 335 351 342 354 6 16 17 17 21 20 23 26 24
154 149 146 145 164 172 198 208 207 196 179 188 249 239 229 193 285 322 312 321 333 56 334 300 168 249 275 311 347 356 6 24 19 21 24 19 22 28
153 155 154 167 165 172 203 216 236 249 242 241 253 243 248 221 128 297 296 273 272 288 319 289 172 231 144 236 335 352 357 13 32 23 24 25 20 24
149 159 160 162 173 169 184 203 219 224 240 238 245 260 261 239 179 262 279 284 283 265 213 264 237 275 165 180 241 336 354 2 17 38 30 26 22 22
149 150 149 149 171 184 188 206 230 240 244 260 259 253 256 240 201 183 246 244 282 239 160 247 273 299 261 215 149 273 330 1 8 12 30 34 19 20
137 134 160 157 178 194 211 191 238 247 229 259 268 271 269 229 234 213 206 252 253 264 101 195 279 338 308 90 163 195 295 331 348 9 10 18 27 7
157 166 170 188 193 212 209 211 238 249 266 265 257 250 229 210 210 220 198 206 239 239 157 187 272 266 195 289 174 171 201 262 298 360 5 21 14 27
166 158 166 186 199 213 216 246 260 268 252 256 255 260 259 239 211 209 203 205 231 250 139 190 263 267 291 293 272 149 173 150 283 272 354 348 4 359
139 161 171 191 212 212 246 251 246 227 237 246 251 259 252 205 111 149 185 196 236 241 227 204 223 265 251 248 266 245 203 183 196 235 228 161 48 342
166 166 191 196 204 181 188 223 213 226 235 247 257 277 304 271 238 226 230 201 214 239 208 203 207 215 239 246 246 263 175 203 151 219 227 232 225 203
147 164 187 197 172 196 206 211 217 228 231 231 231 252 269 276 276 262 237 221 237 221 211 187 202 224 245 253 255 233 231 182 178 186 175 244 202 215
175 202 203 181 198 203 206 212 212 229 240 286 300 275 260 265 276 277 272 235 235 236 229 190 162 186 219 246 219 228 200 187 167 178 198 201 260 189
207 211 200 177 191 204 208 212 227 216 53 259 258 272 281 276 286 276 273 268 256 234 239 213 172 190 229 241 280 214 210 187 162 184 177 193 214 182
181 201 205 174 184 199 208 220 229 239 239 251 257 267 282 274 274 277 278 281 282 275 239 205 186 204 221 237 232 210 212 165 184 205 187 181 257 264
181 187 195 170 182 194 203 202 207 227 252 310 273 258 258 266 264 271 280 290 288 280 272 259 222 209 184 94 200 202 213 216 209 188 163 155 201 189
162 192 188 173 180 187 193 200 208 210 212 214 233 260 281 281 283 284 278 282 287 290 292 285 51 104 166 216 240 227 156 168 226 226 229 214 168 220
202 199 190 175 182 189 194 200 209 216 214 199 204 226 236 257 266 277 279 276 277 280 282 280 152 155 226 229 235 236 145 152 181 202 239 247 246 251